• In Lithuania
  • List of Countries
  • For 7 days
  • Water Temperature
  • Satellite Maps
  • Weather Map
  • Weather Widgets
  • user-avatar
    Login

    Hourly Weather Kerns

    Today, 21 February, Wednesday

    Time Temperature Precipitation Wind Pressure Humidity
    00:00 +27°C° 0.2 mm 3 mps 753 mmHg 85%
    01:00 +27°C° 0.2 mm 3 mps 752 mmHg 83%
    02:00 +27°C° 0 mm 2 mps 752 mmHg 83%
    03:00 +27°C° 0 mm 2 mps 752 mmHg 83%
    04:00 +26°C° 0 mm 1 mps 753 mmHg 88%
    05:00 +26°C° 0.3 mm 2 mps 753 mmHg 90%
    06:00 +26°C° 0.3 mm 2 mps 754 mmHg 91%
    07:00 +26°C° 0.3 mm 2 mps 754 mmHg 92%
    08:00 +29°C° 0.1 mm 2 mps 754 mmHg 83%
    09:00 +31°C° 0.1 mm 2 mps 753 mmHg 75%
    10:00 +33°C° 0.1 mm 1 mps 753 mmHg 66%
    11:00 +36°C° 0 mm 2 mps 753 mmHg 59%
    12:00 +37°C° 0 mm 3 mps 752 mmHg 53%
    13:00 +38°C° 0 mm 3 mps 752 mmHg 47%
    14:00 +38°C° 0 mm 4 mps 751 mmHg 48%
    15:00 +38°C° 0 mm 4 mps 751 mmHg 50%
    16:00 +38°C° 0 mm 4 mps 750 mmHg 51%
    17:00 +35°C° 0.4 mm 4 mps 750 mmHg 62%
    18:00 +33°C° 0.4 mm 4 mps 750 mmHg 74%
    19:00 +29°C° 0.4 mm 4 mps 750 mmHg 85%
    20:00 +29°C° 0.2 mm 4 mps 751 mmHg 86%
    21:00 +29°C° 0.2 mm 4 mps 751 mmHg 88%
    22:00 +28°C° 0.2 mm 4 mps 752 mmHg 90%
    23:00 +28°C° 1.3 mm 4 mps 752 mmHg 91%

    Tomorrow, 22 February, Thursday

    Time Temperature Precipitation Wind Pressure Humidity
    00:00 +28°C° 1.3 mm 4 mps 752 mmHg 93%
    01:00 +28°C° 1.3 mm 4 mps 752 mmHg 94%
    02:00 +28°C° 0.2 mm 4 mps 752 mmHg 94%
    03:00 +28°C° 0.2 mm 3 mps 752 mmHg 95%
    04:00 +28°C° 0.2 mm 3 mps 752 mmHg 95%
    05:00 +28°C° 1 mm 3 mps 752 mmHg 94%
    06:00 +28°C° 1 mm 2 mps 752 mmHg 93%
    07:00 +27°C° 1 mm 2 mps 753 mmHg 93%
    08:00 +29°C° 1.2 mm 3 mps 753 mmHg 88%
    09:00 +30°C° 1.2 mm 3 mps 753 mmHg 84%
    10:00 +33°C° 1.2 mm 3 mps 753 mmHg 80%
    11:00 +33°C° 0.6 mm 4 mps 753 mmHg 77%
    12:00 +33°C° 0.6 mm 4 mps 753 mmHg 74%
    13:00 +34°C° 0.6 mm 4 mps 753 mmHg 71%
    14:00 +31°C° 0.3 mm 3 mps 752 mmHg 76%
    15:00 +30°C° 0.3 mm 3 mps 752 mmHg 81%
    16:00 +29°C° 0.3 mm 2 mps 752 mmHg 87%
    17:00 +29°C° 0.1 mm 2 mps 752 mmHg 88%
    18:00 +28°C° 0.1 mm 2 mps 752 mmHg 89%
    19:00 +28°C° 0.1 mm 2 mps 752 mmHg 90%
    20:00 +27°C° 0 mm 2 mps 753 mmHg 91%
    21:00 +27°C° 0 mm 2 mps 753 mmHg 91%
    22:00 +27°C° 0 mm 2 mps 754 mmHg 92%
    23:00 +27°C° 0.1 mm 2 mps 754 mmHg 92%

    Day after tomorrow, 23 February, Friday

    Time Temperature Precipitation Wind Pressure Humidity
    00:00 +27°C° 0.1 mm 2 mps 754 mmHg 93%
    01:00 +27°C° 0.1 mm 2 mps 754 mmHg 94%
    02:00 +27°C° 0 mm 2 mps 753 mmHg 95%
    03:00 +27°C° 0 mm 2 mps 753 mmHg 96%
    04:00 +26°C° 0 mm 3 mps 753 mmHg 97%
    05:00 +27°C° 0.5 mm 3 mps 753 mmHg 96%
    06:00 +27°C° 0.5 mm 3 mps 754 mmHg 96%
    07:00 +28°C° 0.5 mm 3 mps 755 mmHg 96%
    08:00 +29°C° 3.2 mm 3 mps 755 mmHg 90%
    09:00 +30°C° 3.2 mm 4 mps 755 mmHg 84%
    10:00 +33°C° 3.2 mm 4 mps 755 mmHg 79%
    11:00 +33°C° 1.8 mm 4 mps 755 mmHg 75%
    12:00 +34°C° 1.8 mm 4 mps 755 mmHg 71%
    13:00 +35°C° 1.8 mm 4 mps 754 mmHg 67%
    14:00 +34°C° 1.1 mm 5 mps 754 mmHg 71%
    15:00 +33°C° 1.1 mm 5 mps 754 mmHg 76%
    16:00 +32°C° 1.1 mm 5 mps 753 mmHg 80%
    17:00 +30°C° 0.7 mm 5 mps 754 mmHg 85%
    18:00 +29°C° 0.7 mm 4 mps 754 mmHg 89%
    19:00 +28°C° 0.7 mm 4 mps 755 mmHg 93%
    20:00 +28°C° 1.5 mm 4 mps 756 mmHg 93%
    21:00 +27°C° 1.5 mm 4 mps 756 mmHg 93%
    22:00 +27°C° 1.5 mm 3 mps 757 mmHg 93%
    23:00 +27°C° 0.4 mm 3 mps 756 mmHg 94%

    24 February, Saturday

    Time Temperature Precipitation Wind Pressure Humidity
    00:00 +27°C° 0.4 mm 2 mps 756 mmHg 95%
    01:00 +27°C° 0.4 mm 2 mps 755 mmHg 95%
    02:00 +27°C° 0 mm 2 mps 755 mmHg 95%
    03:00 +26°C° 0 mm 2 mps 755 mmHg 95%
    04:00 +26°C° 0 mm 1 mps 754 mmHg 95%
    05:00 +26°C° 0 mm 1 mps 755 mmHg 96%
    06:00 +27°C° 0 mm 1 mps 755 mmHg 96%
    07:00 +27°C° 0 mm 1 mps 756 mmHg 96%
    08:00 +28°C° 0.1 mm 2 mps 756 mmHg 91%
    09:00 +30°C° 0.1 mm 2 mps 756 mmHg 86%
    10:00 +31°C° 0.1 mm 3 mps 757 mmHg 81%
    11:00 +33°C° 0.5 mm 3 mps 756 mmHg 80%
    12:00 +33°C° 0.5 mm 3 mps 756 mmHg 78%
    13:00 +34°C° 0.5 mm 4 mps 755 mmHg 77%
    14:00 +33°C° 0.9 mm 4 mps 755 mmHg 80%
    15:00 +31°C° 0.9 mm 3 mps 755 mmHg 83%
    16:00 +31°C° 0.9 mm 3 mps 754 mmHg 86%
    17:00 +30°C° 0.5 mm 3 mps 755 mmHg 90%
    18:00 +29°C° 0.5 mm 2 mps 755 mmHg 93%
    19:00 +28°C° 0.5 mm 2 mps 756 mmHg 97%
    20:00 +28°C° 0.3 mm 2 mps 756 mmHg 97%
    21:00 +28°C° 0.3 mm 1 mps 756 mmHg 97%
    22:00 +27°C° 0.3 mm 1 mps 757 mmHg 97%
    23:00 +27°C° 0.6 mm 1 mps 757 mmHg 97%

    25 February, Sunday

    Time Temperature Precipitation Wind Pressure Humidity
    00:00 +27°C° 0.6 mm 2 mps 756 mmHg 98%
    01:00 +27°C° 0.6 mm 2 mps 756 mmHg 98%
    02:00 +27°C° 0.6 mm 2 mps 755 mmHg 98%
    03:00 +27°C° 0.6 mm 2 mps 755 mmHg 98%
    04:00 +27°C° 0.6 mm 2 mps 754 mmHg 98%
    05:00 +27°C° 0.4 mm 1 mps 755 mmHg 98%
    06:00 +27°C° 0.4 mm 1 mps 755 mmHg 98%
    07:00 +27°C° 0.4 mm 1 mps 756 mmHg 97%
    08:00 +29°C° 0.1 mm 1 mps 756 mmHg 91%
    09:00 +30°C° 0.1 mm 2 mps 756 mmHg 85%
    10:00 +31°C° 0.1 mm 2 mps 756 mmHg 79%
    11:00 +32°C° 0.2 mm 2 mps 755 mmHg 75%
    12:00 +34°C° 0.2 mm 3 mps 755 mmHg 71%
    13:00 +34°C° 0.2 mm 3 mps 754 mmHg 67%
    14:00 +34°C° 0.5 mm 3 mps 754 mmHg 71%
    15:00 +33°C° 0.5 mm 3 mps 754 mmHg 75%
    16:00 +31°C° 0.5 mm 3 mps 754 mmHg 79%
    17:00 +30°C° 0.4 mm 3 mps 754 mmHg 85%
    18:00 +29°C° 0.4 mm 2 mps 755 mmHg 90%
    19:00 +28°C° 0.4 mm 2 mps 755 mmHg 96%
    20:00 +28°C° 0.6 mm 1 mps 755 mmHg 96%
    21:00 +28°C° 0.6 mm 1 mps 756 mmHg 97%
    22:00 +27°C° 0.6 mm 1 mps 756 mmHg 97%
    23:00 +27°C° 0.5 mm 1 mps 756 mmHg 98%

    26 February, Monday

    Time Temperature Precipitation Wind Pressure Humidity
    00:00 +27°C° 0.5 mm 1 mps 756 mmHg 98%
    01:00 +27°C° 0.5 mm 1 mps 755 mmHg 98%
    02:00 +27°C° 0 mm 1 mps 755 mmHg 98%
    03:00 +26°C° 0 mm 1 mps 755 mmHg 98%
    04:00 +26°C° 0 mm 1 mps 755 mmHg 98%
    05:00 +26°C° 0.1 mm 1 mps 755 mmHg 97%
    06:00 +27°C° 0.1 mm 1 mps 756 mmHg 96%
    07:00 +27°C° 0.1 mm 1 mps 756 mmHg 96%
    08:00 +28°C° 0 mm 1 mps 756 mmHg 89%
    09:00 +30°C° 0 mm 1 mps 757 mmHg 83%
    10:00 +31°C° 0 mm 1 mps 757 mmHg 77%
    11:00 +32°C° 0 mm 2 mps 756 mmHg 73%
    12:00 +34°C° 0 mm 2 mps 756 mmHg 70%
    13:00 +34°C° 0 mm 3 mps 755 mmHg 67%
    14:00 +34°C° 0.1 mm 3 mps 755 mmHg 68%
    15:00 +34°C° 0.1 mm 3 mps 755 mmHg 69%
    16:00 +34°C° 0.1 mm 3 mps 754 mmHg 71%
    17:00 +31°C° 0 mm 3 mps 755 mmHg 78%
    18:00 +30°C° 0 mm 2 mps 755 mmHg 84%
    19:00 +28°C° 0 mm 2 mps 755 mmHg 91%
    20:00 +28°C° 0.1 mm 2 mps 756 mmHg 93%
    21:00 +28°C° 0.1 mm 1 mps 756 mmHg 94%
    22:00 +27°C° 0.1 mm 1 mps 757 mmHg 96%
    23:00 +27°C° 0.4 mm 1 mps 756 mmHg 96%
    Show more